• în România
  • Lista ţărilor
  • Pe 7 zile
  • Temperatura apei
  • Hartă satelitară
  • Meteo pe hartă
  • Widget-uri
  • user-avatar
    Intrare

    Meteo pe oră la Buar

    Astăzi, 19 Septembrie, Miercuri

    Timp Temperatura Precipitaţii Vânt Presiune Umiditate
    00:00 +22°C° 0.1 mm 1 m/s 694 mmHg 93%
    01:00 +22°C° 0.1 mm 1 m/s 694 mmHg 94%
    02:00 +21°C° 0.1 mm 1 m/s 694 mmHg 95%
    03:00 +21°C° 0.1 mm 1 m/s 694 mmHg 95%
    04:00 +19°C° 0.1 mm 0 m/s 694 mmHg 96%
    05:00 +21°C° 0.4 mm 1 m/s 694 mmHg 95%
    06:00 +22°C° 0.4 mm 1 m/s 695 mmHg 95%
    07:00 +22°C° 0.4 mm 1 m/s 695 mmHg 94%
    08:00 +25°C° 0.1 mm 1 m/s 696 mmHg 85%
    09:00 +27°C° 0.1 mm 1 m/s 696 mmHg 76%
    10:00 +29°C° 0.1 mm 1 m/s 697 mmHg 68%
    11:00 +30°C° 1.4 mm 1 m/s 696 mmHg 67%
    12:00 +31°C° 1.4 mm 1 m/s 696 mmHg 67%
    13:00 +29°C° 1.4 mm 0 m/s 695 mmHg 67%
    14:00 +30°C° 1.1 mm 1 m/s 695 mmHg 69%
    15:00 +30°C° 1.1 mm 1 m/s 694 mmHg 71%
    16:00 +29°C° 1.1 mm 1 m/s 694 mmHg 74%
    17:00 +27°C° 0.5 mm 1 m/s 694 mmHg 79%
    18:00 +25°C° 0.5 mm 1 m/s 694 mmHg 84%
    19:00 +21°C° 0.5 mm 0 m/s 694 mmHg 89%
    20:00 +21°C° 0.2 mm 0 m/s 694 mmHg 90%
    21:00 +21°C° 0.2 mm 0 m/s 695 mmHg 91%
    22:00 +20°C° 0.2 mm 0 m/s 695 mmHg 92%
    23:00 +22°C° 0 mm 1 m/s 695 mmHg 92%

    Mâine, 20 Septembrie, Joi

    Timp Temperatura Precipitaţii Vânt Presiune Umiditate
    00:00 +22°C° 0 mm 1 m/s 694 mmHg 93%
    01:00 +22°C° 0 mm 1 m/s 694 mmHg 93%
    02:00 +21°C° 0 mm 1 m/s 694 mmHg 94%
    03:00 +21°C° 0 mm 1 m/s 694 mmHg 94%
    04:00 +21°C° 0 mm 1 m/s 693 mmHg 94%
    05:00 +22°C° 0 mm 1 m/s 694 mmHg 92%
    06:00 +22°C° 0 mm 1 m/s 694 mmHg 91%
    07:00 +23°C° 0 mm 1 m/s 695 mmHg 90%
    08:00 +26°C° 0 mm 1 m/s 695 mmHg 80%
    09:00 +27°C° 0 mm 0 m/s 696 mmHg 69%
    10:00 +30°C° 0 mm 0 m/s 697 mmHg 59%
    11:00 +31°C° 0.1 mm 0 m/s 696 mmHg 55%
    12:00 +32°C° 0.1 mm 0 m/s 695 mmHg 51%
    13:00 +33°C° 0.1 mm 0 m/s 695 mmHg 48%
    14:00 +34°C° 0 mm 1 m/s 694 mmHg 51%
    15:00 +33°C° 0 mm 1 m/s 693 mmHg 55%
    16:00 +32°C° 0 mm 1 m/s 693 mmHg 58%
    17:00 +30°C° 0.1 mm 1 m/s 693 mmHg 64%
    18:00 +28°C° 0.1 mm 1 m/s 693 mmHg 70%
    19:00 +26°C° 0.1 mm 1 m/s 693 mmHg 76%
    20:00 +25°C° 0.7 mm 1 m/s 693 mmHg 80%
    21:00 +24°C° 0.7 mm 1 m/s 694 mmHg 85%
    22:00 +23°C° 0.7 mm 1 m/s 694 mmHg 90%
    23:00 +23°C° 0.1 mm 1 m/s 693 mmHg 90%

    Poimâine, 21 Septembrie, Vineri

    Timp Temperatura Precipitaţii Vânt Presiune Umiditate
    00:00 +22°C° 0.1 mm 1 m/s 693 mmHg 91%
    01:00 +22°C° 0.1 mm 1 m/s 693 mmHg 92%
    02:00 +22°C° 0.1 mm 1 m/s 693 mmHg 93%
    03:00 +22°C° 0.1 mm 1 m/s 692 mmHg 93%
    04:00 +21°C° 0.1 mm 1 m/s 692 mmHg 93%
    05:00 +22°C° 0.2 mm 1 m/s 693 mmHg 93%
    06:00 +22°C° 0.2 mm 1 m/s 694 mmHg 92%
    07:00 +23°C° 0.2 mm 1 m/s 694 mmHg 91%
    08:00 +25°C° 0.7 mm 1 m/s 695 mmHg 86%
    09:00 +27°C° 0.7 mm 1 m/s 696 mmHg 81%
    10:00 +29°C° 0.7 mm 1 m/s 696 mmHg 76%
    11:00 +29°C° 1.1 mm 1 m/s 696 mmHg 73%
    12:00 +30°C° 1.1 mm 1 m/s 695 mmHg 70%
    13:00 +30°C° 1.1 mm 2 m/s 695 mmHg 68%
    14:00 +30°C° 0.4 mm 1 m/s 694 mmHg 67%
    15:00 +30°C° 0.4 mm 1 m/s 694 mmHg 65%
    16:00 +28°C° 0.4 mm 0 m/s 693 mmHg 64%
    17:00 +26°C° 0.1 mm 0 m/s 693 mmHg 70%
    18:00 +24°C° 0.1 mm 0 m/s 693 mmHg 75%
    19:00 +22°C° 0.1 mm 0 m/s 693 mmHg 81%
    20:00 +22°C° 0.1 mm 0 m/s 693 mmHg 84%
    21:00 +23°C° 0.1 mm 1 m/s 693 mmHg 87%
    22:00 +22°C° 0.1 mm 1 m/s 694 mmHg 90%
    23:00 +22°C° 0.2 mm 1 m/s 693 mmHg 91%

    22 Septembrie, Sâmbătă

    Timp Temperatura Precipitaţii Vânt Presiune Umiditate
    00:00 +22°C° 0.2 mm 1 m/s 693 mmHg 93%
    01:00 +21°C° 0.2 mm 1 m/s 693 mmHg 95%
    02:00 +21°C° 0.4 mm 1 m/s 693 mmHg 95%
    03:00 +21°C° 0.4 mm 1 m/s 693 mmHg 96%
    04:00 +21°C° 0.4 mm 1 m/s 693 mmHg 96%
    05:00 +21°C° 0 mm 1 m/s 693 mmHg 95%
    06:00 +22°C° 0 mm 1 m/s 694 mmHg 94%
    07:00 +22°C° 0 mm 1 m/s 695 mmHg 92%
    08:00 +25°C° 0 mm 1 m/s 695 mmHg 83%
    09:00 +27°C° 0 mm 1 m/s 696 mmHg 73%
    10:00 +30°C° 0 mm 1 m/s 696 mmHg 64%
    11:00 +31°C° 0 mm 1 m/s 695 mmHg 60%
    12:00 +32°C° 0 mm 1 m/s 695 mmHg 55%
    13:00 +33°C° 0 mm 1 m/s 694 mmHg 51%
    14:00 +32°C° 0 mm 1 m/s 694 mmHg 54%
    15:00 +32°C° 0 mm 1 m/s 693 mmHg 57%
    16:00 +31°C° 0 mm 1 m/s 693 mmHg 60%
    17:00 +29°C° 0.1 mm 1 m/s 693 mmHg 66%
    18:00 +27°C° 0.1 mm 1 m/s 694 mmHg 72%
    19:00 +25°C° 0.1 mm 1 m/s 694 mmHg 78%
    20:00 +24°C° 0.5 mm 1 m/s 694 mmHg 82%
    21:00 +24°C° 0.5 mm 1 m/s 694 mmHg 86%
    22:00 +23°C° 0.5 mm 1 m/s 693 mmHg 90%
    23:00 +22°C° 0.4 mm 1 m/s 693 mmHg 92%

    23 Septembrie, Duminică

    Timp Temperatura Precipitaţii Vânt Presiune Umiditate
    00:00 +22°C° 0.4 mm 1 m/s 693 mmHg 93%
    01:00 +22°C° 0.4 mm 1 m/s 693 mmHg 95%
    02:00 +22°C° 0.5 mm 1 m/s 693 mmHg 95%
    03:00 +21°C° 0.5 mm 1 m/s 693 mmHg 95%
    04:00 +21°C° 0.5 mm 1 m/s 693 mmHg 96%
    05:00 +22°C° 0.2 mm 1 m/s 693 mmHg 95%
    06:00 +22°C° 0.2 mm 1 m/s 694 mmHg 95%
    07:00 +23°C° 0.2 mm 1 m/s 695 mmHg 94%
    08:00 +24°C° 0.8 mm 1 m/s 695 mmHg 89%
    09:00 +26°C° 0.8 mm 1 m/s 696 mmHg 85%
    10:00 +28°C° 0.8 mm 1 m/s 696 mmHg 80%
    11:00 +29°C° 0.2 mm 1 m/s 695 mmHg 71%
    12:00 +31°C° 0.2 mm 1 m/s 695 mmHg 62%
    13:00 +31°C° 0.2 mm 0 m/s 694 mmHg 53%
    14:00 +31°C° 0 mm 0 m/s 694 mmHg 54%
    15:00 +30°C° 0 mm 0 m/s 693 mmHg 55%
    16:00 +29°C° 0 mm 0 m/s 693 mmHg 57%
    17:00 +27°C° 0 mm 0 m/s 693 mmHg 63%
    18:00 +27°C° 0 mm 1 m/s 694 mmHg 70%
    19:00 +25°C° 0 mm 1 m/s 694 mmHg 76%
    20:00 +24°C° 0.2 mm 1 m/s 694 mmHg 80%
    21:00 +23°C° 0.2 mm 1 m/s 694 mmHg 85%
    22:00 +23°C° 0.2 mm 1 m/s 694 mmHg 89%
    23:00 +22°C° 1 mm 1 m/s 694 mmHg 91%

    24 Septembrie, Luni

    Timp Temperatura Precipitaţii Vânt Presiune Umiditate
    00:00 +22°C° 1 mm 1 m/s 694 mmHg 93%
    01:00 +21°C° 1 mm 1 m/s 693 mmHg 95%
    02:00 +21°C° 0.4 mm 1 m/s 693 mmHg 96%
    03:00 +21°C° 0.4 mm 1 m/s 693 mmHg 96%
    04:00 +21°C° 0.4 mm 1 m/s 694 mmHg 97%
    05:00 +21°C° 0 mm 1 m/s 694 mmHg 96%
    06:00 +22°C° 0 mm 1 m/s 695 mmHg 94%
    07:00 +22°C° 0 mm 1 m/s 695 mmHg 93%
    08:00 +24°C° 0.2 mm 1 m/s 696 mmHg 86%
    09:00 +26°C° 0.2 mm 2 m/s 696 mmHg 78%
    10:00 +28°C° 0.2 mm 2 m/s 696 mmHg 71%
    11:00 +29°C° 0.7 mm 2 m/s 695 mmHg 68%
    12:00 +30°C° 0.7 mm 2 m/s 695 mmHg 65%
    13:00 +31°C° 0.7 mm 2 m/s 694 mmHg 63%
    14:00 +30°C° 1.1 mm 2 m/s 694 mmHg 69%
    15:00 +29°C° 1.1 mm 2 m/s 693 mmHg 75%
    16:00 +29°C° 1.1 mm 2 m/s 693 mmHg 81%
    17:00 +27°C° 2.1 mm 1 m/s 694 mmHg 85%
    18:00 +25°C° 2.1 mm 1 m/s 694 mmHg 89%
    19:00 +23°C° 2.1 mm 1 m/s 694 mmHg 93%
    20:00 +23°C° 1 mm 1 m/s 695 mmHg 94%
    21:00 +23°C° 1 mm 1 m/s 695 mmHg 94%
    22:00 +22°C° 1 mm 1 m/s 695 mmHg 95%
    23:00 +22°C° 0 mm 1 m/s 695 mmHg 95%
    Arată mai mult